Time,TemperatureF,DewpointF,PressureIn,WindDirection,WindDirectionDegrees,WindSpeedMPH,WindSpeedGustMPH,Humidity,HourlyPrecipIn,Conditions,Clouds,dailyrainin,SoftwareType,DateUTC
2017-03-29 00:02:00,46.2,31.8,28.97,WSW,248,2.9,2.9,57,0.04,,,0.08,VWS V15.00,2017-03-29 07:02:00,
2017-03-29 00:07:00,46.0,32.1,28.91,East,90,2.0,2.0,58,0.04,,,0.08,VWS V15.00,2017-03-29 07:07:00,
2017-03-29 00:12:00,45.9,33.2,28.91,ENE,68,3.8,3.8,61,0.04,,,0.08,VWS V15.00,2017-03-29 07:12:00,
2017-03-29 00:17:00,45.9,33.2,28.91,ENE,68,3.4,3.8,61,0.04,,,0.08,VWS V15.00,2017-03-29 07:17:00,
2017-03-29 00:22:00,45.9,33.2,28.88,ESE,112,2.0,3.1,61,0.04,,,0.08,VWS V15.00,2017-03-29 07:22:00,
2017-03-29 00:27:00,45.9,33.2,28.88,ENE,68,2.5,2.5,61,0.04,,,0.08,VWS V15.00,2017-03-29 07:27:00,
2017-03-29 00:32:00,45.7,33.4,28.88,ESE,112,1.3,1.3,62,0.04,,,0.08,VWS V15.00,2017-03-29 07:32:00,
2017-03-29 00:37:00,45.7,33.8,28.91,ESE,112,1.1,2.0,63,0.04,,,0.08,VWS V15.00,2017-03-29 07:37:00,
2017-03-29 00:42:00,45.5,34.0,28.91,ESE,112,1.6,1.6,64,0.04,,,0.08,VWS V15.00,2017-03-29 07:42:00,
2017-03-29 00:47:00,45.5,34.0,28.91,East,90,1.1,1.1,64,0.04,,,0.08,VWS V15.00,2017-03-29 07:47:00,
2017-03-29 00:52:00,45.7,34.6,28.91,East,90,1.1,1.1,65,0.04,,,0.08,VWS V15.00,2017-03-29 07:52:00,
2017-03-29 00:57:00,45.7,34.6,28.91,ENE,68,1.6,2.5,65,0.00,,,0.08,VWS V15.00,2017-03-29 07:57:00,
2017-03-29 01:02:00,45.7,34.2,28.91,NNE,22,1.3,2.9,64,0.00,,,0.00,VWS V15.00,2017-03-29 08:02:00,
2017-03-29 01:07:00,45.7,35.0,28.88,WNW,292,1.3,1.3,66,0.00,,,0.00,VWS V15.00,2017-03-29 08:07:00,
2017-03-29 01:12:00,45.7,34.6,28.88,ESE,112,0.0,0.0,65,0.00,,,0.00,VWS V15.00,2017-03-29 08:12:00,
2017-03-29 01:13:00,45.9,36.3,28.91,ESE,112,2.0,2.0,69,0.04,,,0.04,VWS V15.00,2017-03-29 08:13:00,
2017-03-29 01:14:00,45.9,36.3,28.91,ESE,112,2.0,2.0,69,0.04,,,0.04,VWS V15.00,2017-03-29 08:14:00,
2017-03-29 01:15:00,46.0,36.5,28.91,SSW,202,2.0,2.0,69,0.04,,,0.04,VWS V15.00,2017-03-29 08:15:00,
2017-03-29 01:16:00,46.0,36.5,28.91,SSE,158,2.0,2.9,69,0.04,,,0.04,VWS V15.00,2017-03-29 08:16:00,
2017-03-29 01:17:00,45.7,35.4,28.88,ESE,112,0.0,0.0,67,0.00,,,0.00,VWS V15.00,2017-03-29 08:17:00,
2017-03-29 01:18:00,46.0,36.5,28.91,SSE,158,2.2,3.1,69,0.04,,,0.04,VWS V15.00,2017-03-29 08:18:00,
2017-03-29 01:19:00,46.0,36.5,28.91,ESE,112,1.6,1.6,69,0.04,,,0.04,VWS V15.00,2017-03-29 08:19:00,
2017-03-29 01:22:00,45.7,35.0,28.88,SSE,158,0.0,1.1,66,0.00,,,0.00,VWS V15.00,2017-03-29 08:22:00,
2017-03-29 01:27:00,45.7,35.4,28.88,SSW,202,1.6,2.7,67,0.00,,,0.00,VWS V15.00,2017-03-29 08:27:00,
2017-03-29 01:32:00,45.7,35.4,28.88,South,180,2.7,3.6,67,0.04,,,0.04,VWS V15.00,2017-03-29 08:32:00,
2017-03-29 01:37:00,45.7,35.7,28.91,SSE,158,2.9,2.9,68,0.04,,,0.04,VWS V15.00,2017-03-29 08:37:00,
2017-03-29 01:42:00,45.7,35.4,28.91,ESE,112,2.0,2.0,67,0.04,,,0.04,VWS V15.00,2017-03-29 08:42:00,
2017-03-29 01:47:00,45.7,35.4,28.91,ESE,112,0.0,1.1,67,0.04,,,0.04,VWS V15.00,2017-03-29 08:47:00,
2017-03-29 01:52:00,45.9,35.5,28.91,SE,135,1.1,1.3,67,0.04,,,0.04,VWS V15.00,2017-03-29 08:52:00,
2017-03-29 01:57:00,45.9,35.9,28.91,ESE,112,2.5,2.9,68,0.04,,,0.04,VWS V15.00,2017-03-29 08:57:00,
2017-03-29 02:02:00,45.9,36.3,28.91,SSE,158,1.6,2.5,69,0.04,,,0.04,VWS V15.00,2017-03-29 09:02:00,
2017-03-29 02:07:00,45.9,36.3,28.91,SSW,202,1.6,2.2,69,0.04,,,0.04,VWS V15.00,2017-03-29 09:07:00,
2017-03-29 02:12:00,45.9,36.3,28.91,ESE,112,2.0,2.0,69,0.04,,,0.04,VWS V15.00,2017-03-29 09:12:00,
2017-03-29 02:17:00,46.0,36.5,28.91,ESE,112,1.6,1.6,69,0.04,,,0.04,VWS V15.00,2017-03-29 09:17:00,
2017-03-29 02:22:00,46.0,36.5,28.88,SSE,158,2.9,3.6,69,0.04,,,0.04,VWS V15.00,2017-03-29 09:22:00,
2017-03-29 02:27:00,45.9,36.3,28.88,ESE,112,2.0,2.0,69,0.04,,,0.04,VWS V15.00,2017-03-29 09:27:00,
2017-03-29 02:32:00,45.9,36.3,28.88,ESE,112,2.0,2.7,69,0.00,,,0.04,VWS V15.00,2017-03-29 09:32:00,
2017-03-29 02:37:00,45.9,36.3,28.88,ESE,112,2.9,2.9,69,0.00,,,0.04,VWS V15.00,2017-03-29 09:37:00,
2017-03-29 02:42:00,45.9,36.3,28.88,ESE,112,0.0,0.0,69,0.00,,,0.04,VWS V15.00,2017-03-29 09:42:00,
2017-03-29 02:44:00,46.0,37.5,28.85,WSW,248,0.0,0.0,72,0.09,,,0.13,VWS V15.00,2017-03-29 09:44:00,
2017-03-29 02:45:00,46.0,37.5,28.85,ESE,112,1.3,1.3,72,0.09,,,0.13,VWS V15.00,2017-03-29 09:45:00,
2017-03-29 02:46:00,46.0,37.5,28.85,SSE,158,1.6,2.9,72,0.09,,,0.13,VWS V15.00,2017-03-29 09:46:00,
2017-03-29 02:47:00,45.9,36.3,28.88,ESE,112,0.0,0.0,69,0.00,,,0.04,VWS V15.00,2017-03-29 09:47:00,
2017-03-29 02:48:00,46.0,37.5,28.85,ESE,112,0.9,2.7,72,0.09,,,0.13,VWS V15.00,2017-03-29 09:48:00,
2017-03-29 02:52:00,45.9,36.3,28.88,ESE,112,0.0,0.0,69,0.00,,,0.04,VWS V15.00,2017-03-29 09:52:00,
2017-03-29 02:57:00,46.0,36.5,28.88,ESE,112,0.0,0.0,69,0.05,,,0.09,VWS V15.00,2017-03-29 09:57:00,
2017-03-29 03:02:00,46.0,36.5,28.88,ESE,112,0.0,0.0,69,0.05,,,0.09,VWS V15.00,2017-03-29 10:02:00,
2017-03-29 03:07:00,46.0,36.8,28.85,NNE,22,1.6,1.6,70,0.05,,,0.09,VWS V15.00,2017-03-29 10:07:00,
2017-03-29 03:12:00,46.0,36.8,28.85,NNE,22,0.0,0.0,70,0.05,,,0.09,VWS V15.00,2017-03-29 10:12:00,
2017-03-29 03:17:00,46.0,36.8,28.85,NNE,22,0.0,0.0,70,0.05,,,0.09,VWS V15.00,2017-03-29 10:17:00,
2017-03-29 03:22:00,46.0,36.8,28.85,NNE,22,0.0,0.0,70,0.09,,,0.13,VWS V15.00,2017-03-29 10:22:00,
2017-03-29 03:27:00,46.0,36.8,28.85,NNE,22,0.0,0.0,70,0.09,,,0.13,VWS V15.00,2017-03-29 10:27:00,
2017-03-29 03:32:00,46.0,36.8,28.85,NNE,22,0.0,0.0,70,0.09,,,0.13,VWS V15.00,2017-03-29 10:32:00,
2017-03-29 03:37:00,46.0,36.8,28.85,ESE,112,2.5,2.5,70,0.09,,,0.13,VWS V15.00,2017-03-29 10:37:00,
2017-03-29 03:42:00,46.0,37.5,28.85,WSW,248,0.0,0.0,72,0.09,,,0.13,VWS V15.00,2017-03-29 10:42:00,
2017-03-29 03:47:00,46.0,37.5,28.85,ESE,112,1.6,2.5,72,0.13,,,0.17,VWS V15.00,2017-03-29 10:47:00,
2017-03-29 03:52:00,45.9,37.7,28.85,WSW,248,0.0,0.0,73,0.13,,,0.17,VWS V15.00,2017-03-29 10:52:00,
2017-03-29 03:57:00,45.9,37.7,28.85,SSE,158,2.0,2.0,73,0.08,,,0.17,VWS V15.00,2017-03-29 10:57:00,
2017-03-29 04:02:00,45.9,37.7,28.85,ESE,112,2.0,2.0,73,0.08,,,0.17,VWS V15.00,2017-03-29 11:02:00,
2017-03-29 04:07:00,45.9,38.0,28.82,SSW,202,1.3,1.3,74,0.08,,,0.17,VWS V15.00,2017-03-29 11:07:00,
2017-03-29 04:12:00,45.9,38.0,28.82,SSE,158,0.0,0.0,74,0.08,,,0.17,VWS V15.00,2017-03-29 11:12:00,
2017-03-29 04:17:00,45.9,37.7,28.82,ESE,112,0.9,1.3,73,0.08,,,0.17,VWS V15.00,2017-03-29 11:17:00,
2017-03-29 04:22:00,45.9,37.7,28.82,ESE,112,0.0,1.1,73,0.04,,,0.17,VWS V15.00,2017-03-29 11:22:00,
2017-03-29 04:27:00,45.9,37.7,28.82,SSE,158,2.2,2.2,73,0.04,,,0.17,VWS V15.00,2017-03-29 11:27:00,
2017-03-29 04:32:00,46.0,38.2,28.82,South,180,2.7,2.7,74,0.04,,,0.17,VWS V15.00,2017-03-29 11:32:00,
2017-03-29 04:37:00,46.0,38.2,28.82,ESE,112,2.5,2.5,74,0.04,,,0.17,VWS V15.00,2017-03-29 11:37:00,
2017-03-29 04:42:00,46.2,38.4,28.82,ESE,112,2.9,2.9,74,0.04,,,0.17,VWS V15.00,2017-03-29 11:42:00,
2017-03-29 04:47:00,46.2,38.4,28.82,East,90,2.2,2.5,74,0.04,,,0.17,VWS V15.00,2017-03-29 11:47:00,
2017-03-29 04:52:00,46.2,38.8,28.79,East,90,0.0,2.5,75,0.00,,,0.17,VWS V15.00,2017-03-29 11:52:00,
2017-03-29 04:57:00,46.4,38.6,28.79,SSE,158,0.0,0.0,74,0.00,,,0.17,VWS V15.00,2017-03-29 11:57:00,
2017-03-29 05:02:00,46.4,38.6,28.79,East,90,2.0,2.5,74,0.00,,,0.17,VWS V15.00,2017-03-29 12:02:00,
2017-03-29 05:07:00,46.4,38.6,28.79,ESE,112,2.5,3.4,74,0.04,,,0.21,VWS V15.00,2017-03-29 12:07:00,
2017-03-29 05:12:00,46.4,38.6,28.79,SSE,158,2.0,2.7,74,0.04,,,0.21,VWS V15.00,2017-03-29 12:12:00,
2017-03-29 05:17:00,46.4,38.9,28.79,ESE,112,2.5,3.4,75,0.04,,,0.21,VWS V15.00,2017-03-29 12:17:00,
2017-03-29 05:22:00,46.8,39.6,28.79,ESE,112,2.0,2.9,76,0.04,,,0.21,VWS V15.00,2017-03-29 12:22:00,
2017-03-29 05:27:00,46.9,40.1,28.79,ESE,112,2.2,2.5,77,0.04,,,0.21,VWS V15.00,2017-03-29 12:27:00,
2017-03-29 05:32:00,46.9,39.8,28.79,ESE,112,2.7,2.7,76,0.04,,,0.21,VWS V15.00,2017-03-29 12:32:00,
2017-03-29 05:37:00,47.1,40.0,28.76,ESE,112,3.4,3.6,76,0.04,,,0.21,VWS V15.00,2017-03-29 12:37:00,
2017-03-29 05:42:00,47.3,40.1,28.76,ESE,112,0.0,0.0,76,0.04,,,0.21,VWS V15.00,2017-03-29 12:42:00,
2017-03-29 05:47:00,47.3,39.8,28.76,East,90,0.0,2.2,75,0.04,,,0.21,VWS V15.00,2017-03-29 12:47:00,
2017-03-29 05:52:00,47.3,39.8,28.79,East,90,0.0,0.9,75,0.04,,,0.21,VWS V15.00,2017-03-29 12:52:00,
2017-03-29 05:57:00,47.1,39.6,28.79,NNW,338,3.1,3.1,75,0.04,,,0.21,VWS V15.00,2017-03-29 12:57:00,
2017-03-29 06:02:00,47.1,39.3,28.79,North,0,1.6,2.0,74,0.04,,,0.21,VWS V15.00,2017-03-29 13:02:00,
2017-03-29 06:07:00,46.9,39.1,28.76,North,0,0.0,2.0,74,0.00,,,0.21,VWS V15.00,2017-03-29 13:07:00,
2017-03-29 06:12:00,46.8,38.9,28.76,ENE,68,2.0,2.0,74,0.00,,,0.21,VWS V15.00,2017-03-29 13:12:00,
2017-03-29 06:17:00,46.8,38.9,28.76,NNE,22,0.0,0.9,74,0.00,,,0.21,VWS V15.00,2017-03-29 13:17:00,
2017-03-29 06:22:00,46.8,38.9,28.76,SSW,202,2.2,2.2,74,0.00,,,0.21,VWS V15.00,2017-03-29 13:22:00,
2017-03-29 06:27:00,46.6,38.8,28.76,East,90,1.1,1.3,74,0.00,,,0.21,VWS V15.00,2017-03-29 13:27:00,
2017-03-29 06:32:00,46.4,38.6,28.76,North,0,0.0,0.9,74,0.00,,,0.21,VWS V15.00,2017-03-29 13:32:00,
2017-03-29 06:37:00,46.4,38.6,28.76,South,180,0.0,1.3,74,0.00,,,0.21,VWS V15.00,2017-03-29 13:37:00,
2017-03-29 06:42:00,46.4,38.6,28.76,South,180,0.0,1.6,74,0.00,,,0.21,VWS V15.00,2017-03-29 13:42:00,
2017-03-29 06:47:00,46.4,38.6,28.76,SW,225,0.0,0.0,74,0.00,,,0.21,VWS V15.00,2017-03-29 13:47:00,
2017-03-29 06:52:00,46.4,38.6,28.73,SSE,158,0.0,0.0,74,0.00,,,0.21,VWS V15.00,2017-03-29 13:52:00,
2017-03-29 06:57:00,46.6,39.1,28.73,SSE,158,0.0,1.3,75,0.00,,,0.21,VWS V15.00,2017-03-29 13:57:00,
2017-03-29 07:02:00,46.6,39.1,28.73,SSE,158,0.0,0.0,75,0.00,,,0.21,VWS V15.00,2017-03-29 14:02:00,
2017-03-29 07:07:00,46.6,39.1,28.73,SSW,202,2.0,2.7,75,0.00,,,0.21,VWS V15.00,2017-03-29 14:07:00,
2017-03-29 07:12:00,46.6,39.1,28.73,North,0,2.0,2.0,75,0.04,,,0.25,VWS V15.00,2017-03-29 14:12:00,
2017-03-29 07:17:00,46.8,39.3,28.73,ENE,68,0.0,0.0,75,0.04,,,0.25,VWS V15.00,2017-03-29 14:17:00,
2017-03-29 07:22:00,46.8,39.3,28.73,ENE,68,0.0,0.0,75,0.04,,,0.25,VWS V15.00,2017-03-29 14:22:00,
2017-03-29 07:27:00,46.9,39.4,28.73,North,0,2.0,2.0,75,0.04,,,0.25,VWS V15.00,2017-03-29 14:27:00,
2017-03-29 07:32:00,46.9,39.4,28.73,North,0,1.3,3.6,75,0.04,,,0.25,VWS V15.00,2017-03-29 14:32:00,
2017-03-29 07:37:00,46.9,39.4,28.73,NNW,338,2.7,3.1,75,0.04,,,0.25,VWS V15.00,2017-03-29 14:37:00,
2017-03-29 07:42:00,46.8,39.3,28.73,NNE,22,2.9,3.4,75,0.04,,,0.25,VWS V15.00,2017-03-29 14:42:00,
2017-03-29 07:47:00,46.8,39.3,28.73,NNE,22,3.1,3.1,75,0.08,,,0.29,VWS V15.00,2017-03-29 14:47:00,
2017-03-29 07:52:00,46.6,39.1,28.76,NNE,22,2.0,2.0,75,0.08,,,0.29,VWS V15.00,2017-03-29 14:52:00,
2017-03-29 07:57:00,46.6,39.1,28.76,North,0,2.2,2.2,75,0.08,,,0.29,VWS V15.00,2017-03-29 14:57:00,
2017-03-29 08:01:00,46.6,39.1,28.76,NNE,22,1.6,3.1,75,0.08,,,0.29,VWS V15.00,2017-03-29 15:01:00,
2017-03-29 08:06:00,46.6,39.1,28.73,NNE,22,0.0,0.0,75,0.08,,,0.29,VWS V15.00,2017-03-29 15:06:00,
2017-03-29 08:11:00,46.6,39.1,28.73,NNE,22,0.0,0.0,75,0.04,,,0.29,VWS V15.00,2017-03-29 15:11:00,
2017-03-29 08:16:00,46.6,39.1,28.73,NNE,22,0.0,0.0,75,0.04,,,0.29,VWS V15.00,2017-03-29 15:16:00,
2017-03-29 08:21:00,46.8,39.3,28.76,NNE,22,0.0,0.0,75,0.09,,,0.34,VWS V15.00,2017-03-29 15:21:00,
2017-03-29 08:26:00,46.8,39.3,28.76,ENE,68,0.0,0.0,75,0.09,,,0.34,VWS V15.00,2017-03-29 15:26:00,
2017-03-29 08:31:00,46.9,39.4,28.76,SSW,202,1.6,1.6,75,0.09,,,0.34,VWS V15.00,2017-03-29 15:31:00,
2017-03-29 08:36:00,46.9,39.8,28.73,ESE,112,0.0,0.0,76,0.09,,,0.34,VWS V15.00,2017-03-29 15:36:00,
2017-03-29 08:41:00,47.1,40.0,28.73,ESE,112,1.1,1.1,76,0.09,,,0.34,VWS V15.00,2017-03-29 15:41:00,
2017-03-29 08:46:00,47.1,40.0,28.73,ESE,112,0.0,0.0,76,0.05,,,0.34,VWS V15.00,2017-03-29 15:46:00,
2017-03-29 08:51:00,47.3,40.1,28.73,ESE,112,0.0,0.0,76,0.05,,,0.34,VWS V15.00,2017-03-29 15:51:00,
2017-03-29 08:56:00,47.5,40.3,28.73,NNW,338,1.3,1.3,76,0.05,,,0.34,VWS V15.00,2017-03-29 15:56:00,
2017-03-29 09:01:00,47.7,40.8,28.73,WNW,292,0.0,0.0,77,0.05,,,0.34,VWS V15.00,2017-03-29 16:01:00,
2017-03-29 09:06:00,47.8,41.3,28.76,North,0,1.1,1.6,78,0.05,,,0.34,VWS V15.00,2017-03-29 16:06:00,
2017-03-29 09:11:00,48.0,41.5,28.76,North,0,1.6,1.6,78,0.05,,,0.34,VWS V15.00,2017-03-29 16:11:00,
2017-03-29 09:16:00,48.0,41.5,28.76,West,270,0.0,0.0,78,0.09,,,0.38,VWS V15.00,2017-03-29 16:16:00,
2017-03-29 09:21:00,48.0,41.5,28.76,North,0,0.0,0.0,78,0.04,,,0.38,VWS V15.00,2017-03-29 16:21:00,
2017-03-29 09:26:00,48.2,42.7,28.73,SSE,158,2.5,2.5,81,0.04,,,0.38,VWS V15.00,2017-03-29 16:26:00,
2017-03-29 09:31:00,48.6,43.0,28.73,North,0,1.6,2.5,81,0.04,,,0.38,VWS V15.00,2017-03-29 16:31:00,
2017-03-29 09:36:00,48.7,43.5,28.76,South,180,2.9,4.3,82,0.04,,,0.38,VWS V15.00,2017-03-29 16:36:00,
2017-03-29 09:41:00,49.1,44.2,28.76,South,180,3.8,6.0,83,0.04,,,0.38,VWS V15.00,2017-03-29 16:41:00,
2017-03-29 09:46:00,49.5,44.5,28.76,SSW,202,2.7,3.1,83,0.04,,,0.38,VWS V15.00,2017-03-29 16:46:00,
2017-03-29 09:51:00,49.6,44.7,28.76,SSE,158,4.7,8.7,83,0.04,,,0.38,VWS V15.00,2017-03-29 16:51:00,
2017-03-29 09:56:00,49.8,44.9,28.73,SSW,202,3.6,3.6,83,0.04,,,0.38,VWS V15.00,2017-03-29 16:56:00,
2017-03-29 10:01:00,50.2,44.9,28.73,SSE,158,3.6,4.0,82,0.04,,,0.38,VWS V15.00,2017-03-29 17:01:00,
2017-03-29 10:06:00,50.2,44.6,28.76,SE,135,3.4,3.4,81,0.04,,,0.38,VWS V15.00,2017-03-29 17:06:00,
2017-03-29 10:11:00,50.4,44.4,28.76,SSE,158,2.5,4.0,80,0.04,,,0.38,VWS V15.00,2017-03-29 17:11:00,
2017-03-29 10:16:00,50.5,44.3,28.76,South,180,3.4,3.8,79,0.00,,,0.38,VWS V15.00,2017-03-29 17:16:00,
2017-03-29 10:21:00,50.7,44.1,28.76,SSE,158,4.9,5.8,78,0.00,,,0.38,VWS V15.00,2017-03-29 17:21:00,
2017-03-29 10:26:00,50.9,43.6,28.76,SSE,158,3.4,3.6,76,0.00,,,0.38,VWS V15.00,2017-03-29 17:26:00,
2017-03-29 10:31:00,51.1,43.4,28.76,SSE,158,2.7,5.8,75,0.00,,,0.38,VWS V15.00,2017-03-29 17:31:00,
2017-03-29 10:36:00,51.1,43.1,28.76,SSE,158,2.5,2.5,74,0.00,,,0.38,VWS V15.00,2017-03-29 17:36:00,
2017-03-29 10:41:00,51.3,42.9,28.76,SSW,202,3.8,3.8,73,0.00,,,0.38,VWS V15.00,2017-03-29 17:41:00,
2017-03-29 10:46:00,51.4,42.7,28.76,SSE,158,4.0,4.0,72,0.00,,,0.38,VWS V15.00,2017-03-29 17:46:00,
2017-03-29 10:51:00,51.6,42.5,28.76,South,180,14.8,14.8,71,0.00,,,0.38,VWS V15.00,2017-03-29 17:51:00,
2017-03-29 10:56:00,51.6,41.8,28.76,South,180,4.0,6.3,69,0.00,,,0.38,VWS V15.00,2017-03-29 17:56:00,
2017-03-29 11:01:00,51.8,42.0,28.76,SSE,158,8.1,8.5,69,0.00,,,0.38,VWS V15.00,2017-03-29 18:01:00,
2017-03-29 11:06:00,51.8,41.6,28.76,SSE,158,4.3,4.3,68,0.00,,,0.38,VWS V15.00,2017-03-29 18:06:00,
2017-03-29 11:11:00,51.8,41.2,28.76,SSW,202,5.4,5.4,67,0.00,,,0.38,VWS V15.00,2017-03-29 18:11:00,
2017-03-29 11:16:00,51.8,40.8,28.76,SSE,158,9.6,9.6,66,0.00,,,0.38,VWS V15.00,2017-03-29 18:16:00,
2017-03-29 11:21:00,51.8,40.4,28.76,SSW,202,9.6,9.6,65,0.00,,,0.38,VWS V15.00,2017-03-29 18:21:00,
2017-03-29 11:26:00,51.8,39.6,28.76,South,180,5.6,5.6,63,0.00,,,0.38,VWS V15.00,2017-03-29 18:26:00,
2017-03-29 11:31:00,52.0,40.2,28.76,SSW,202,3.4,4.3,64,0.00,,,0.38,VWS V15.00,2017-03-29 18:31:00,
2017-03-29 11:36:00,52.2,40.0,28.76,SSE,158,6.0,6.0,63,0.00,,,0.38,VWS V15.00,2017-03-29 18:36:00,
2017-03-29 11:41:00,52.2,39.1,28.76,SSW,202,11.0,11.0,61,0.00,,,0.38,VWS V15.00,2017-03-29 18:41:00,
2017-03-29 11:46:00,52.2,39.1,28.76,SSW,202,16.6,16.6,61,0.00,,,0.38,VWS V15.00,2017-03-29 18:46:00,
2017-03-29 11:51:00,52.2,39.1,28.76,SSE,158,6.3,6.3,61,0.00,,,0.38,VWS V15.00,2017-03-29 18:51:00,
2017-03-29 11:56:00,52.2,38.3,28.76,SSW,202,8.1,8.1,59,0.00,,,0.38,VWS V15.00,2017-03-29 18:56:00,
2017-03-29 12:01:00,52.3,38.5,28.76,SSE,158,8.5,8.5,59,0.00,,,0.38,VWS V15.00,2017-03-29 19:01:00,
2017-03-29 12:06:00,52.3,38.5,28.76,SSE,158,3.6,7.6,59,0.00,,,0.38,VWS V15.00,2017-03-29 19:06:00,